Regional Weather Roundup
Issued by NWS

Home | Current Version | Previous Version | Graphics & Text | Print | Product List | Glossary On
Versions: 1 2 3 4 5 6 7 8 9 10 11 12 13 14 15 16 17 18 19 20 21 22 23 24 25 26 27 28 29 30 31 32 33 34 35 36 37 38 39 40 41 42 43 44 45 46 47 48 49 50
711
ASUS44 KLIX 222101
RWRLA
LOUISIANA WEATHER ROUNDUP
NATIONAL WEATHER SERVICE NEW ORLEANS LA
400 PM CDT WED OCT 22 2014

NOTE: "FAIR" INDICATES FEW OR NO CLOUDS BELOW 12,000 FEET WITH NO
      SIGNIFICANT WEATHER AND/OR OBSTRUCTIONS TO VISIBILITY.
      SKY/WX - SKY CONDITION AND SIGNIFICANT WEATHER.
      TMP - AIR TEMPERATURE.    DP   - DEWPOINT TEMPERATURE.
      RH  - RELATIVE HUMIDITY.  PRES - PRESSURE.
      HX  - HEAT INDEX.         WCI  - WIND CHILL INDEX.

*  THESE STATIONS ARE NOT NWS OR FAA STATIONS AND ARE NOT UNDER
   NWS QUALITY CONTROL.

LAZ040-048-061>063-065-066-069-222200-
SOUTHEAST LOUISIANA

CITY           SKY/WX    TMP DP  RH WIND       PRES   REMARKS
N.O. AUDUBON     N/A     78  56  45 MISG        N/A
N.O. INTL ARPT SUNNY     79  53  40 NE8       30.02F
N.O. LAKEFRONT SUNNY     77  57  50 NW7       30.03F
N.O. DOWNTOWN* FAIR      79  52  38 N7        30.02F
SLIDELL        SUNNY     80  50  34 N8        30.02F
BATON ROUGE    SUNNY     79  51  37 NE10      30.04F
BOOTHVILLE     SUNNY     76  59  55 NE9       30.02S
BELLE CHASSE   SUNNY     79  54  41 NE5       30.01F
BOGALUSA*      FAIR      81  47  31 NE6       30.05S
NEW ROADS*     FAIR      78  51  38 N6        30.05S
GONZALES*      FAIR      79  54  41 CALM      30.02F
HAMMOND*       NOT AVBL
HOUMA*         SUNNY     81  57  44 NE12      30.01F
PORT FOURCHON* CLEAR     77  59  53 NE16      30.04F

$$

LAZ041-044-053-054-222200-
SOUTHWEST LOUISIANA

CITY           SKY/WX    TMP DP  RH WIND       PRES   REMARKS
LAKE CHARLES   SUNNY     81  56  42 NE9       30.03F
LAFAYETTE      SUNNY     80  56  43 NE7       30.03F
PATTERSON      SUNNY     81  57  44 NE10      30.04F
SALT POINT       N/A     81  57  43 VRB5      30.01S
NEW IBERIA     SUNNY     81  56  42 NE9       30.04S
CHENAULT AIRPK SUNNY     81  57  44 NE7       30.04F

$$

LAZ027-028-222200-
CENTRAL LOUISIANA

CITY           SKY/WX    TMP DP  RH WIND       PRES   REMARKS
FORT POLK      SUNNY     77  53  42 N8        30.06F
ALEXANDRIA INT SUNNY     78  50  37 NE10      30.06F
ALEXANDRIA     SUNNY     77  51  40 VRB7      30.08F

$$

LAZ001-002-222200-
NORTHWEST LOUISIANA

CITY           SKY/WX    TMP DP  RH WIND       PRES   REMARKS
SHREVEPORT     SUNNY     78  48  34 E8        30.09F
BARKSDALE AFB  SUNNY     78  49  36 E8        30.09F
DTN SHREVEPORT SUNNY     76  48  37 E9        30.09F

$$

LAZ014-016-222200-
NORTHEAST LOUISIANA

CITY           SKY/WX    TMP DP  RH WIND       PRES   REMARKS
MONROE         SUNNY     76  50  40 E14       30.12F
TALLULAH       SUNNY     76  49  38 NE10      30.10F

$$




USA.gov is the U.S. government's official web portal to all federal, state and local government web resources and services.